This demonstration page uses our WeatherBlox Daily Observations layout. Learn more.

Left ArrowRight Arrow

44.89941, -97.11507

Hourly Observations for January 6, 2021

Temp ( °F °C ) Dew Point ( °F °C ) Humidity (%) Winds ( mph kmh ) Pressure ( in mb ) Visibility ( mi km ) Precip ( " mm )
12:25 am 00:25 Cloudy with Light Rain 36 2.2 29 -1.7 76 76 SE 13 20 30.05 1018 9 14 0.01 0.25
12:51 am 00:51 Cloudy 36 2 28 -2 75 75 SE 9 15 30.07 1018 10 16 0.01 0.25
12:53 am 00:53 Cloudy 36 2.2 28 -2.2 73 73 SE 9 15 30.04 1017 10 16 0.01 0.25
1:53 am 01:53 Cloudy 36 2.2 28 -2.2 73 73 SE 10 17 30.05 1018 10 16 0.00 0.00
2:53 am 02:53 Cloudy with Light Snow 36 2.2 29 -1.7 76 76 SE 12 19 30.06 1018 8 13 0.00 0.00
3:16 am 03:16 Cloudy with Light Snow 35 1.7 29 -1.7 78 78 SE 12 19 30.09 1019 6 10 0.00 0.00
3:53 am 03:53 Cloudy 34 1.1 29 -1.7 82 82 SE 8 13 30.06 1018 9 14 0.00 0.00
4:17 am 04:17 Cloudy 34 1.1 29 -1.7 82 82 ESE 8 13 30.09 1019 10 16 0.00 0.00
4:53 am 04:53 Cloudy 34 1.1 30 -1.1 85 85 E 9 15 30.07 1018 10 16 0.00 0.00
5:31 am 05:31 Cloudy with Light Snow 32 0 31 -0.6 96 96 E 6 9 30.11 1020 2 3 0.00 0.00
5:46 am 05:46 Cloudy with Light Snow 33 0.6 31 -0.6 92 92 E 6 9 30.11 1019 2 2 0.01 0.25
5:53 am 05:53 Cloudy with Light Snow 33 0.6 32 0 96 96 E 5 7 30.08 1019 2 3 0.01 0.25
6:00 am 06:00 Cloudy with Light Snow 33 0.6 32 0 96 96 E 7 11 30.11 1019 2 3 0.00 0.00
6:10 am 06:10 Cloudy with Light Snow 33 0.6 32 0 96 96 ESE 5 7 30.12 1020 3 5 0.00 0.00
6:53 am 06:53 Cloudy 34 1.1 32 0 92 92 ESE 6 9 30.11 1020 9 14 0.00 0.00
7:44 am 07:44 Cloudy with Light Wintry Mix 34 1.1 33 0.6 97 97 ESE 6 9 30.15 1021 3 4 0.00 0.00
7:53 am 07:53 Cloudy with Light Wintry Mix 34 1.1 33 0.6 97 97 E 5 7 30.14 1021 2 3 0.00 0.00
8:17 am 08:17 Cloudy with Light Wintry Mix 33 0.6 33 0.6 100 100 ESE 6 9 30.16 1021 3 5 0.01 0.25
8:53 am 08:53 Cloudy with Mist and Fog 33 0.6 32 0 96 96 E 6 9 30.15 1021 4 6 0.01 0.25
9:39 am 09:39 Cloudy 34 1.1 33 0.6 97 97 ESE 8 13 30.18 1022 7 11 0.00 0.00
9:51 am 09:51 Cloudy 34 1 34 1 100 100 ESE 9 15 30.19 1022 8 13 0.00 0.00
9:53 am 09:53 Cloudy 35 1.7 33 0.6 93 93 ESE 10 17 30.17 1022 8 13 0.00 0.00
10:00 am 10:00 Cloudy 35 1.7 33 0.6 93 93 E 8 13 30.19 1022 7 11 0.00 0.00
10:10 am 10:10 Cloudy with Light Snow 34 1.1 33 0.6 97 97 E 9 15 30.19 1022 5 8 0.00 0.00
10:28 am 10:28 Cloudy with Mist and Fog 34 1.1 32 0 92 92 E 8 13 30.19 1022 6 10 0.00 0.00
10:53 am 10:53 Cloudy 34 1.1 32 0 92 92 E 9 15 30.17 1022 10 16 0.00 0.00
11:53 am 11:53 Cloudy 35 1.7 31 -0.6 85 85 ESE 10 17 30.17 1022 10 16 0.00 0.00
12:53 pm 12:53 Cloudy with Light Rain 36 2.2 32 0 86 86 ESE 8 13 30.18 1022 8 13 0.00 0.00
1:01 pm 13:01 Cloudy with Light Snow 35 1.7 32 0 89 89 E 7 11 30.19 1022 4 6 0.00 0.00
1:10 pm 13:10 Cloudy 35 1.7 33 0.6 93 93 E 7 11 30.19 1022 8 13 0.00 0.00
1:24 pm 13:24 Cloudy 35 1.7 33 0.6 93 93 E 8 13 30.19 1022 10 16 0.00 0.00
1:49 pm 13:49 Cloudy 36 2 32 0 87 87 E 8 13 30.20 1023 10 16 0.00 0.00
1:53 pm 13:53 Cloudy 35 1.7 32 0 89 89 E 12 19 30.18 1022 10 16 0.00 0.00
2:31 pm 14:31 Cloudy with Light Rain 35 1.7 32 0 89 89 ESE 10 17 30.21 1023 8 13 0.00 0.00
2:38 pm 14:38 Cloudy 35 1.7 33 0.6 93 93 ESE 9 15 30.21 1023 10 16 0.00 0.00
2:53 pm 14:53 Cloudy 35 1.7 33 0.6 93 93 ESE 12 19 30.20 1023 10 16 0.00 0.00
3:17 pm 15:17 Cloudy 35 1.7 33 0.6 93 93 E 9 15 30.22 1023 9 14 0.00 0.00
3:53 pm 15:53 Cloudy 34 1.1 33 0.6 97 97 E 9 15 30.22 1023 7 11 0.00 0.00
4:13 pm 16:13 Cloudy 34 1.1 32 0 92 92 E 9 15 30.23 1024 8 13 0.00 0.00
4:53 pm 16:53 Cloudy 34 1.1 32 0 92 92 E 12 19 30.21 1023 8 13 0.00 0.00
5:53 pm 17:53 Cloudy 34 1.1 31 -0.6 89 89 E 15 24 30.24 1024 10 16 0.00 0.00
6:53 pm 18:53 Cloudy 33 0.6 30 -1.1 89 89 E 7 11 30.25 1024 9 14 0.00 0.00
7:53 pm 19:53 Cloudy 33 0.6 30 -1.1 89 89 E 10 17 30.27 1025 7 11 0.00 0.00
8:53 pm 20:53 Cloudy 33 0.6 30 -1.1 89 89 SE 8 13 30.28 1025 8 13 0.00 0.00
9:53 pm 21:53 Cloudy 32 0 30 -1.1 92 92 ESE 7 11 30.28 1026 8 13 0.00 0.00
10:41 pm 22:41 Mostly Cloudy with Mist and Fog 31 -0.6 29 -1.7 92 92 ESE 7 11 30.32 1027 5 8 0.00 0.00
10:53 pm 22:53 Partly Cloudy with Mist and Fog 31 -0.6 29 -1.7 92 92 ESE 7 11 30.30 1026 4 6 0.00 0.00
11:53 pm 23:53 Cloudy with Mist and Fog 31 -0.6 29 -1.7 92 92 E 3 6 30.30 1026 4 6 0.00 0.00

Powered by AerisWeather